TA2VIP-13 Weather Reports


time (UTC)temp
C
wind
direction
speed
KPH
gust
KPH
rain 1hr
cm
rain 24hr
cm
rain mn
cm
humidity
%
barometer
mb
20260507010212 1 0 0.0 0.0 0.00 0.00 0.00 50 1015.0
20260507005212 2 0 0.0 0.0 0.00 0.00 0.00 50 1015.0
20260507003212 2 0 0.0 0.0 0.00 0.00 0.00 50 1015.0
20260507002212 1 0 0.0 0.0 0.00 0.00 0.00 50 1015.0
20260507001212 1 0 0.0 0.0 0.00 0.00 0.00 50 1015.0
20260507000212 1 0 0.0 0.0 0.00 0.00 0.00 50 1015.0
20260506235212 3 190 3.2 3.2 0.00 0.00 0.00 50 1015.0
20260506234212 3 190 3.2 3.2 0.00 0.00 0.00 50 1015.0
20260506233212 3 190 3.2 3.2 0.00 0.00 0.00 50 1015.0
20260506232213 5 0 0.0 0.0 0.00 0.00 0.00 50 1015.0
20260506231213 5 0 0.0 0.0 0.00 0.00 0.00 50 1015.0
20260506230212 5 0 0.0 0.0 0.00 0.00 0.00 50 1015.0
20260506225213 5 0 0.0 0.0 0.00 0.00 0.00 50 1015.0
20260506224213 5 0 0.0 0.0 0.00 0.00 0.00 50 1015.0
20260506223143 5 0 0.0 0.0 0.00 0.00 0.00 50 1015.0
20260506222143 3 310 4.8 4.8 0.00 0.00 0.00 50 1015.0
20260506221143 3 310 4.8 4.8 0.00 0.00 0.00 50 1015.0
20260506220143 3 310 4.8 4.8 0.00 0.00 0.00 50 1015.0
20260506215143 5 20 6.4 6.4 0.00 0.00 0.00 50 1015.0
20260506214143 5 20 6.4 6.4 0.00 0.00 0.00 50 1015.0
20260506213143 5 20 6.4 6.4 0.00 0.00 0.00 50 1015.0
20260506212143 5 40 8.0 8.0 0.00 0.00 0.00 50 1015.0
20260506211143 5 40 8.0 8.0 0.00 0.00 0.00 50 1015.0
20260506210143 5 40 8.0 8.0 0.00 0.00 0.00 50 1015.0
20260506205143 5 70 6.4 6.4 0.00 0.00 0.00 50 1015.0
20260506204143 5 70 6.4 6.4 0.00 0.00 0.00 50 1015.0
20260506203143 5 70 6.4 6.4 0.00 0.00 0.00 50 1015.0
20260506202143 6 0 0.0 0.0 0.00 0.00 0.00 50 1015.0
20260506201143 6 0 0.0 0.0 0.00 0.00 0.00 50 1015.0
20260506200143 6 0 0.0 0.0 0.00 0.00 0.00 50 1015.0
20260506195213 3 0 0.0 0.0 0.00 0.00 0.00 50 1015.0
20260506040853 3 0 0.0 0.0 0.00 0.00 0.00 50 1015.0
20260506035853 3 0 0.0 0.0 0.00 0.00 0.00 50 1015.0
20260506034853 2 360 3.2 3.2 0.00 0.00 0.00 50 1015.0
20260506033823 2 360 3.2 3.2 0.00 0.00 0.00 50 1015.0
20260506032823 2 360 3.2 3.2 0.00 0.00 0.00 50 1015.0
20260506031823 2 0 0.0 0.0 0.00 0.00 0.00 50 1015.0
20260506030823 2 0 0.0 0.0 0.00 0.00 0.00 50 1015.0
20260506025823 2 0 0.0 0.0 0.00 0.00 0.00 50 1015.0
20260506024823 3 80 4.8 4.8 0.00 0.00 0.00 50 1015.0
20260506023823 3 80 4.8 4.8 0.00 0.00 0.00 50 1015.0
20260506022823 3 80 4.8 4.8 0.00 0.00 0.00 50 1015.0
20260506021823 3 80 6.4 6.4 0.00 0.00 0.00 50 1015.0
20260506020823 3 80 6.4 6.4 0.00 0.00 0.00 50 1015.0
20260506015823 3 80 6.4 6.4 0.00 0.00 0.00 50 1015.0
20260506014823 5 0 0.0 0.0 0.00 0.00 0.00 50 1015.0
20260506013823 5 0 0.0 0.0 0.00 0.00 0.00 50 1015.0
20260506012823 5 0 0.0 0.0 0.00 0.00 0.00 50 1015.0
20260506011823 5 0 0.0 0.0 0.00 0.00 0.00 50 1015.0
20260506010823 5 0 0.0 0.0 0.00 0.00 0.00 50 1015.0